GW5385 Weather Reports


time (UTC)temp
C
wind
direction
speed
KPH
gust
KPH
rain 1hr
cm
rain 24hr
cm
rain mn
cm
humidity
%
barometer
mb
20260505001540 12 341 24.1 37.0 0.00 0.00 0.00 22 1017.2
20260505000009 12 333 19.3 35.4 0.00 0.00 0.00 22 1017.1
20260504234509 12 335 25.7 41.8 0.00 0.00 0.00 24 1017.2
20260504233006 12 15 25.7 43.5 0.00 0.00 0.00 25 1017.1
20260504231505 12 330 20.9 37.0 0.00 0.00 0.00 25 1017.2
20260504230004 12 332 20.9 45.1 0.00 0.00 0.00 25 1017.3
20260504224503 12 310 17.7 37.0 0.00 0.00 0.00 25 1017.1
20260504223001 12 356 20.9 35.4 0.00 0.00 0.00 26 1017.2
20260504221600 12 343 19.3 46.7 0.00 0.00 0.00 29 1017.3
20260504220058 12 338 24.1 38.6 0.00 0.00 0.00 27 1017.3
20260504214558 12 333 22.5 33.8 0.00 0.00 0.00 30 1017.3
20260504213053 13 326 24.1 38.6 0.00 0.00 0.00 29 1017.4
20260504211551 12 12 19.3 37.0 0.00 0.00 0.00 31 1017.5
20260504210105 11 335 19.3 37.0 0.00 0.00 0.00 31 1017.7
20260504204557 12 36 25.7 40.2 0.00 0.00 0.00 31 1017.7
20260504203102 11 1 25.7 35.4 0.00 0.00 0.00 33 1017.6
20260504201546 11 340 16.1 32.2 0.00 0.00 0.00 35 1017.6
20260504200045 12 359 20.9 33.8 0.00 0.00 0.00 33 1017.5
20260504194546 12 335 19.3 37.0 0.00 0.00 0.00 32 1017.4
20260504193041 12 331 22.5 37.0 0.00 0.00 0.00 34 1017.6
20260504191542 13 332 19.3 37.0 0.00 0.00 0.00 34 1017.5
20260504190101 12 314 27.4 41.8 0.00 0.00 0.00 34 1017.5
20260504184540 13 14 19.3 35.4 0.00 0.00 0.00 36 1017.4
20260504183036 12 304 16.1 40.2 0.00 0.00 0.00 36 1017.3
20260504181540 12 348 24.1 41.8 0.00 0.00 0.00 35 1017.4
20260504180034 12 333 17.7 35.4 0.00 0.00 0.00 37 1017.5
20260504174532 12 345 17.7 35.4 0.00 0.00 0.00 37 1017.6
20260504173028 11 340 17.7 32.2 0.00 0.00 0.00 38 1017.6
20260504171526 11 352 14.5 30.6 0.00 0.00 0.00 39 1017.7
20260504081600 7 53 22.5 35.4 0.00 0.00 0.00 59 1017.1
20260504044544 12 35 32.2 48.3 0.00 0.00 0.00 40 1012.5
20260504043040 13 30 29.0 38.6 0.00 0.00 0.00 39 1011.9
20260504041539 13 14 19.3 27.4 0.00 0.00 0.00 39 1011.5
20260504040038 13 27 17.7 24.1 0.00 0.00 0.00 38 1011.2
20260504034540 13 20 17.7 24.1 0.00 0.00 0.00 38 1010.9
20260504033040 14 42 22.5 27.4 0.00 0.00 0.00 37 1010.6
20260504031556 15 25 20.9 29.0 0.00 0.00 0.00 37 1010.3
20260504030048 15 37 22.5 27.4 0.00 0.00 0.00 36 1009.9
20260504024548 16 37 19.3 29.0 0.00 0.00 0.00 35 1009.9
20260504023045 16 27 19.3 24.1 0.00 0.00 0.00 33 1009.7
20260504021514 17 39 14.5 19.3 0.00 0.00 0.00 29 1009.6
20260504020014 18 6 0.0 6.4 0.00 0.00 0.00 25 1009.6
20260504014515 19 353 9.7 19.3 0.00 0.00 0.00 23 1009.7
20260504013013 20 6 14.5 22.5 0.00 0.00 0.00 22 1009.7
20260504011509 21 353 12.9 22.5 0.00 0.00 0.00 21 1009.7
20260504010008 21 322 12.9 20.9 0.00 0.00 0.00 21 1009.8
20260504004538 22 344 12.9 30.6 0.00 0.00 0.00 22 1009.8
20260504003039 22 326 14.5 24.1 0.00 0.00 0.00 21 1009.9